Location: Chris' Backyard Observatory
(47.3045°N, 122.2839°W)
Time: 16:14:25
(UTC-08:00)

Daily predictions for brighter satellites

Satellite Brightness Start Highest point End
(mag) Time Altitude Azimuth Time Altitude Azimuth Time Altitude Azimuth
NOSS 2-2 (C) 3.6 18:09:49 10° SSW 18:13:53 73° SE 18:18:43 10° NE
Cosmos 1992 Rocket 4.4 18:10:19 10° NNW 18:15:33 71° WSW 18:20:45 10° SSE
YAOGAN 1 4.2 18:12:06 10° S 18:16:11 41° W 18:20:19 10° NNW
Nadezhda 1 Rocket 3.9 18:10:20 10° N 18:16:26 70° E 18:22:29 10° SSE
Cosmos 1908 Rocket 4.4 18:12:17 10° SSW 18:16:35 56° WNW 18:20:57 10° N
DNEPR-1 R/B 3.5 18:13:09 10° NW 18:17:31 86° NE 18:21:44 10° SE
Resurs 01 Rocket 2.7 18:15:59 10° ESE 18:19:31 24° ENE 18:23:04 10° N
Cosmos 1238 Rocket 3.7 18:17:40 10° NNE 18:19:46 17° ENE 18:21:46 10° ESE
Cosmos 1782 Rocket 3.7 18:17:25 10° S 18:21:52 83° W 18:26:22 10° N
Cosmos 407 Rocket 3.9 18:17:46 10° S 18:22:39 41° ESE 18:27:38 10° NE
Tiangong 2 2.9 18:20:06 10° WSW 18:22:43 25° SSW 18:25:19 10° SE
Meteor 1-28 Rocket 3.2 18:19:49 10° NNE 18:23:37 64° E 18:27:23 10° S
Meteor 1-14 Rocket 4.4 18:19:56 10° S 18:25:54 86° E 18:31:56 10° NNE
Meteor 1-20 Rocket 4.4 18:22:38 10° S 18:28:21 58° E 18:34:05 10° NNE
Cosmos 2322 Rocket 2.3 18:23:42 10° NNW 18:29:21 82° WSW 18:34:58 10° SSE
Cosmos 2181 Rocket 4.4 18:24:47 10° N 18:30:41 42° ENE 18:36:38 10° SE
COSMO-SKYMED 1 2.7 18:27:48 10° NNE 18:32:11 84° WNW 18:36:31 10° SSW
Cosmos 1536 4.4 18:33:50 10° ESE 18:36:07 15° E 18:38:23 10° NE
Meteor 1-13 Rocket 4.5 18:31:52 10° N 18:37:12 45° ENE 18:42:33 10° SE
Thor Agena Rocket 4.3 18:32:16 10° N 18:37:13 54° WNW 18:42:07 10° SW
Okean 1 3.3 18:34:16 10° N 18:38:20 68° E 18:42:22 10° SSE
Okean 2 Rocket 3.4 18:36:21 10° SSW 18:40:48 71° W 18:45:14 10° N
USA 186 3.8 18:42:23 11° NE 18:42:23 11° NE 18:42:52 10° NE
CZ-2D R/B 4.4 18:38:47 10° ESE 18:41:48 23° ENE 18:44:51 10° NNE
Resurs 1-3 4.3 18:38:03 10° SE 18:41:57 32° ENE 18:45:53 10° N
Cosmos 2322 3.9 18:36:33 10° NNW 18:42:08 50° ENE 18:47:40 10° SE
Cosmos 1461 3.2 18:38:15 10° NW 18:42:13 65° WSW 18:46:16 10° SSE
deb Kosmos-1763 4.1 18:40:04 10° SSW 18:43:51 72° ESE 18:47:39 10° NNE
Cosmos 1140 Rocket 4.2 18:43:17 10° SSE 18:47:40 29° E 18:52:06 10° NE
Cosmos 1190 Rocket 3.9 18:43:06 10° SSW 18:48:17 78° ESE 18:53:31 10° NNE
FENGYUN 3A 3.7 18:43:59 10° SSE 18:49:17 59° ENE 18:54:37 10° N
H-2A R/B 3.3 18:47:26 10° SE 18:50:49 35° ENE 18:54:16 10° N
Cosmos 1709 Rocket 4.0 18:47:45 10° S 18:53:52 61° E 18:59:56 10° NNE
Cosmos 1812 3.8 18:50:54 10° NNW 18:54:39 49° W 18:58:22 10° S
COSMOS 2428 3.3 18:49:53 10° NNW 18:55:08 36° NE 18:59:03 16° ESE
Meteor 2-4 Rocket 4.0 18:51:05 10° N 18:56:25 42° ENE 19:01:33 10° SE
SAR-Lupe-4 4.4 18:55:00 17° ESE 18:57:09 30° ENE 19:00:20 10° N
SL-19 R/B 4.4 18:51:56 10° SSE 18:57:31 64° ENE 19:03:32 10° NNW
Spot 2 Rocket 3.6 18:53:09 10° SSE 18:58:05 55° ENE 19:03:02 10° N
Cosmos 2151 Rocket 3.6 18:54:57 10° S 18:59:27 87° ESE 19:04:01 10° N
Helios 1A 3.7 18:58:08 16° ESE 19:00:49 32° ENE 19:04:32 10° N
Cosmos 2292 Rocket 4.3 18:55:42 10° S 19:00:51 77° E 19:07:51 10° N
Cosmos 2237 Rocket 3.7 19:00:02 10° N 19:04:04 19° NE 19:05:44 17° ENE
HJ-1C 3.3 19:02:25 10° SSE 19:05:47 82° ENE 19:09:11 10° N
Okean 1 Rocket 3.5 19:01:43 10° SSE 19:05:53 40° E 19:10:05 10° NNE
GEOS 3 Rocket 3.7 19:09:23 12° NE 19:14:15 58° SE 19:19:27 10° SSW
Envisat 3.9 19:13:16 25° E 19:14:29 28° ENE 19:18:46 10° N
USA 229 DEB 4.0 19:08:29 10° NW 19:15:24 52° NE 19:19:44 24° ESE
USA 229 4.0 19:08:35 10° NW 19:15:29 51° NE 19:19:48 24° ESE
Meteor 1-11 Rocket 3.8 19:10:10 10° S 19:15:51 61° E 19:21:41 10° NNE
Cosmos 1954 Rocket 3.9 19:10:52 10° S 19:15:59 66° ESE 19:21:12 10° NNE
Cosmos 2285 Rocket 4.4 19:09:54 10° NNW 19:16:00 42° ENE 19:19:32 23° ESE
Helios 1B rocket 4.3 19:20:32 16° SSE 19:20:32 16° SSE 19:21:36 10° SSE
Cosmos 2360 Rocket 2.3 19:15:48 10° NNW 19:21:29 80° WSW 19:27:09 10° SSE
Okean 1-7 Rocket 3.6 19:17:00 10° N 19:21:32 58° ENE 19:25:47 11° SSE
Cosmos 2219 3.9 19:17:03 10° SSE 19:22:00 31° ESE 19:23:09 28° E
Cosmos 1633 2.5 19:18:41 10° S 19:22:23 89° E 19:26:06 10° N
Cosmos 1602 3.6 19:19:58 10° S 19:23:50 85° E 19:27:46 10° N
Cosmos 2219 Rocket 2.8 19:19:17 10° NNW 19:24:25 35° NE 19:25:54 30° E
ERS-1 Rocket 4.2 19:25:34 23° NE 19:25:34 23° NE 19:29:05 10° N
Okean 2 4.2 19:24:56 10° N 19:28:11 33° NE 19:28:11 33° NE
Cosmos 1025 Rocket 3.1 19:26:36 10° N 19:30:55 55° ENE 19:32:29 35° SE
ATLAS 2AS CENTAUR R/B 4.5 19:25:36 10° NW 19:32:08 25° N 19:36:51 15° NE
USA 215 4.2 19:29:06 17° NE 19:33:35 39° N 19:39:32 10° WNW
SL-16 R/B 3.9 19:32:21 10° N 19:35:53 16° NE 19:36:07 16° NE
ALOS 3.2 19:33:42 10° S 19:38:13 49° W 19:42:47 10° NNW
Spot 1 3.8 19:37:58 27° SSE 19:40:07 85° ENE 19:44:17 10° NNW
Cosmos 1833 4.2 19:41:49 10° SSW 19:47:32 82° WNW 19:53:13 10° NNE
NOSS 3-1 (C) 4.4 19:41:44 10° NW 19:48:38 45° NE 19:51:11 35° E
Cosmos 2333 Rocket 2.6 19:45:03 10° NNW 19:50:32 44° NE 19:51:05 43° ENE
Cosmos 1818 4.0 19:46:58 10° SW 19:52:22 62° NW 19:56:39 16° NNE
BREEZE-M DEB (TANK) 3.7 19:51:08 10° WNW 19:54:23 65° SSW 19:56:45 37° SE
Resurs 01 Rocket 2.9 19:51:39 10° SSW 19:55:48 40° W 19:59:59 10° NNW
Cosmos 1741 Rocket 3.8 19:51:20 10° SSW 19:56:31 70° ESE 19:59:12 29° NNE
Cosmos 1939 Rocket 4.4 20:03:28 25° N 20:03:28 25° N 20:05:15 10° N
NOSS 0 Rocket 3.9 19:56:29 10° NNW 20:02:33 56° NE 20:03:16 53° E
Cosmos 1980 4.1 19:57:15 10° NNW 20:02:25 43° NE 20:02:25 43° NE
SL-08 ROCKET BODY 4.4 19:57:49 10° S 20:04:00 84° W 20:10:15 10° N
Cosmos 1570 Rocket 4.5 20:01:40 10° NNW 20:06:49 58° WSW 20:09:45 25° S
Genesis I 3.8 20:03:12 10° NW 20:06:58 53° WSW 20:06:58 53° WSW
USA 186 4.3 20:13:48 18° NW 20:13:48 18° NW 20:14:44 10° NNW
Cosmos 1536 3.7 20:08:16 10° SSW 20:12:09 48° WNW 20:16:02 10° N
Cosmos 1610 Rocket 4.3 20:06:04 10° S 20:12:16 72° E 20:18:26 10° NNE
Meteor 1-5 Rocket 4.3 20:09:20 10° S 20:15:20 88° WNW 20:21:17 10° N
Cosmos 405 Rocket 4.3 20:15:26 10° NNW 20:17:35 30° NNW 20:17:35 30° NNW
Cosmos 468 Rocket 4.3 20:29:56 10° NNW 20:34:16 62° NNW 20:34:16 62° NNW
COSMOS 2428 3.7 20:34:10 10° NW 20:39:30 42° WSW 20:41:08 34° SSW
Cosmos 2237 Rocket 2.8 20:43:18 10° NNW 20:47:35 52° NNW 20:47:35 52° NNW
Envisat 4.0 20:53:28 44° W 20:53:28 44° W 20:58:10 10° NNW
Nadezhda 3 Rocket 4.3 20:50:37 10° NNW 20:56:41 62° W 20:56:50 62° W
ERS-1 Rocket 4.4 21:05:34 34° NW 21:05:34 34° NW 21:08:34 10° NNW
H-2A R/B 4.3 21:07:30 18° N 21:07:30 18° N 21:08:52 10° N
Cosmos 2219 4.1 21:00:22 10° SW 21:05:16 47° WNW 21:05:16 47° WNW
USA 229 DEB 4.4 20:59:38 10° NW 21:06:23 47° WSW 21:07:13 45° SW
USA 229 4.4 20:59:44 10° NW 21:06:30 47° WSW 21:07:18 45° SW
Cosmos 2154 Rocket 4.5 21:08:36 58° NW 21:08:36 58° NW 21:14:12 10° N
Cosmos 2219 Rocket 3.3 21:03:12 10° NW 21:07:40 41° W 21:07:40 41° W
USA 215 4.0 21:16:26 43° N 21:16:26 43° N 21:21:55 10° NW
NOSS 3-1 (A) 4.1 21:11:55 10° NW 21:18:20 70° NNW 21:18:20 70° NNW
SL-16 R/B 3.8 21:15:25 10° NNW 21:18:01 28° NNW 21:18:01 28° NNW
ATLAS 2AS CENTAUR R/B 3.8 21:17:41 10° NW 21:24:17 41° NNE 21:24:17 41° NNE
Cosmos 2333 Rocket 3.9 21:29:33 10° NW 21:33:07 29° WNW 21:33:07 29° WNW
NOSS 3-1 (C) 4.5 21:32:34 10° NW 21:38:37 55° W 21:38:37 55° W
